Content
SEND FEEDBACK

Daily
Averages
Monthly
Summary
France

CLERMONT-FERRAND, FRANCE


Home > Europe > France
Elevation: 1083 feet     Latitude: 45 46N     Longitude: 003 10E

WEATHER
 
SELECT A DAY
Number of Records: 194,562;   Date Range: 7/1/96 - 8/31/14
 
SHARE

PRINT THIS DATA

[ ← Previous Day ]
WEATHER ALMANAC - JANUARY 31, 2013
[ Next Day → ]
[ °C ]   °F
Weather ElementAverageHighLow
Temperature47.6 °F57.2 °F (12:00 pm)33.8 °F (5:00 am)
Dewpoint37.8 °F44.6 °F (12:30 pm)32 °F (6:00 am)
Humidity71 %100 % (4:30 am)44 % (9:00 pm)
Barometer30.29 in30.38 in (1:00 am)30.21 in (11:30 pm)
Wind Speed6.8 mph18.4 mph (10:30 am)
Wind Gust26.5 mph (2:00 pm)
Weather ElementAverage
Visibility8.1 mi
Wind DirectionSE (140 °)

Weather ElementTotal
Precipitation---
Heating Degree Days19.5 (Base 65)
Averaged from 50 records on January 31, 2013
WEATHER CONDITIONS BREAKOUT
WIND DIRECTION BREAKOUT
WEATHER BY HOUR - JANUARY 31, 2013
[ °C ]   °F
Local TimeTemperatureDewpointHumidityBarometerVisibilityWind DirectionWind SpeedGust SpeedPrecipitationEventsConditions
12:30 AM44.6 °F39.2 °F81 %30.33 in6.2 miCalmPartly Cloudy
1:00 AM43.0 °F39.0 °F82 %30.38 in19.0 miSE (130°)4.6 mphScattered Clouds
1:00 AM42.8 °F39.2 °F87 %30.33 in6.2 miSE (130°)4.6 mphPartly Cloudy
1:30 AM39.2 °F35.6 °F87 %30.33 in6.2 miVariable1.2 mph
2:00 AM37.4 °F35.6 °F93 %30.33 in6.2 miVariable3.5 mph
2:30 AM39.2 °F37.4 °F93 %30.33 in6.2 miVariable1.2 mph
3:00 AM35.6 °F33.8 °F93 %30.30 in6.2 miVariable2.3 mph
3:30 AM37.4 °F35.6 °F93 %30.33 in6.2 miWest (280°)3.5 mph
4:00 AM35.6 °F33.8 °F93 %30.33 in6.2 miEast (100°)1.2 mphFogShallow Fog
4:30 AM35.6 °F35.6 °F100 %30.33 in6.2 miCalmFogShallow Fog
5:00 AM33.8 °F33.8 °F100 %30.30 in6.2 miWSW (250°)3.5 mphFogShallow Fog
5:30 AM33.8 °F33.8 °F100 %30.30 inSW (230°)4.6 mphClear
6:00 AM33.8 °F32.0 °F93 %30.30 inVariable1.2 mphClear
6:30 AM35.6 °F33.8 °F93 %30.30 inSouth (180°)6.9 mphClear
7:00 AM37.0 °F34.0 °F86 %30.38 in19.0 miNorth (10°)2.3 mphPartly Cloudy
7:00 AM37.4 °F33.8 °F87 %30.33 inVariable2.3 mphClear
7:30 AM39.2 °F35.6 °F87 %30.30 inVariable2.3 mphClear
8:00 AM39.2 °F35.6 °F87 %30.30 inVariable2.3 mphClear
8:30 AM39.2 °F35.6 °F87 %30.33 inSouth (190°)15.0 mphClear
9:00 AM41.0 °F35.6 °F81 %30.33 inSouth (190°)17.3 mphClear
9:30 AM41.0 °F37.4 °F87 %30.30 inSouth (180°)15.0 mphClear
10:00 AM41.0 °F37.4 °F87 %30.30 inVariable1.2 mphClear
10:30 AM44.6 °F37.4 °F76 %30.30 in6.2 miSouth (180°)18.4 mphMostly Cloudy
11:00 AM55.4 °F42.8 °F63 %30.30 in6.2 miSouth (170°)15.0 mphMostly Cloudy
11:30 AM55.4 °F42.8 °F63 %30.30 in6.2 miSW (230°)9.2 mphMostly Cloudy
12:00 PM57.2 °F42.8 °F59 %30.30 in6.2 miVariable4.6 mphMostly Cloudy
12:30 PM57.2 °F44.6 °F63 %30.27 in6.2 miWest (270°)9.2 mphMostly Cloudy
1:00 PM57.0 °F44.0 °F52 %30.28 in25.0 miWSW (240°)9.2 mphMostly Cloudy
1:00 PM57.2 °F44.6 °F63 %30.27 in6.2 miVariable8.1 mph23.0 mphMostly Cloudy
1:30 PM55.4 °F44.6 °F67 %30.30 in6.2 miVariable6.9 mphMostly Cloudy
2:00 PM57.2 °F44.6 °F63 %30.27 in6.2 miVariable5.8 mph26.5 mphMostly Cloudy
2:30 PM57.2 °F44.6 °F63 %30.27 in6.2 miWest (280°)8.1 mphMostly Cloudy
3:00 PM57.2 °F44.6 °F63 %30.27 in6.2 miVariable10.4 mphMostly Cloudy
3:30 PM57.2 °F42.8 °F59 %30.24 in6.2 miWest (270°)10.4 mphMostly Cloudy
4:00 PM57.2 °F42.8 °F59 %30.27 in6.2 miWSW (250°)12.7 mphMostly Cloudy
4:30 PM57.2 °F41.0 °F55 %30.24 in6.2 miWest (260°)13.8 mphScattered Clouds
5:00 PM55.4 °F41.0 °F58 %30.24 in6.2 miWest (260°)15.0 mphScattered Clouds
5:30 PM55.4 °F39.2 °F54 %30.24 in6.2 miWest (280°)11.5 mphScattered Clouds
6:00 PM55.4 °F39.2 °F54 %30.24 in6.2 miWSW (250°)8.1 mphScattered Clouds
6:30 PM55.4 °F39.2 °F54 %30.27 in6.2 miSSW (200°)5.8 mphPartly Cloudy
7:00 PM53.0 °F40.0 °F50 %30.28 in31.0 miSSW (210°)4.6 mphPartly Cloudy
7:00 PM53.6 °F39.2 °F58 %30.27 in6.2 miSW (220°)5.8 mphPartly Cloudy
7:30 PM51.8 °F37.4 °F58 %30.27 in6.2 miSSW (200°)4.6 mphMostly Cloudy
8:00 PM53.6 °F35.6 °F51 %30.27 in6.2 miSSW (210°)4.6 mphMostly Cloudy
8:30 PM53.6 °F33.8 °F47 %30.24 in6.2 miSouth (190°)5.8 mphMostly Cloudy
9:00 PM53.6 °F32.0 °F44 %30.24 in6.2 miSouth (170°)8.1 mphMostly Cloudy
9:30 PM53.6 °F32.0 °F44 %30.27 inSouth (180°)8.1 mphClear
10:30 PM53.6 °F32.0 °F44 %30.24 inSouth (190°)8.1 mphClear
11:00 PM53.6 °F32.0 °F44 %30.24 inSW (230°)4.6 mphClear
11:30 PM53.6 °F32.0 °F44 %30.21 inSouth (190°)6.9 mphClear
Hourly data recorded from LFLC, located miles away from Clermont-Ferrand, France







STORIES FROM OUR PARTNERS